Terminal Aerodrome Forecast
Issued by NWS

Home | Current Version | Previous Version | Text Only | Print | Product List | Glossary On
Versions: 1 2 3 4 5 6 7 8 9 10 11 12 13 14 15
000
FTUS42 KTAE 250500
TAFVLD
TAF
KVLD 250538Z 2506/2606 00000KT 6SM BR BKN008
      TEMPO 2508/2512 00000KT 1/4SM FG VV002
     FM251400 23007KT P6SM SCT025
     FM251800 24009G14KT P6SM SCT050
     FM260100 21003KT P6SM SKC=

USA.gov is the U.S. government's official web portal to all federal, state and local government web resources and services.